Fort Drum, NY

9:04 AM EDT on August 22, 2017 (GMT -0400)
Wheeler-Sack Army Air Field

Weather History for KGTB - December, 2013

Change the Weather History Date:

Thursday, December 12, 2013

  Actual Average Record
Temperature  
Mean Temperature 10 °F -  
Max Temperature 19 °F 33 °F 50 °F (2015)
Min Temperature 1 °F 18 °F -5 °F (2005)
Degree Days  
Heating Degree Days 55    
Moisture  
Dew Point 10 °F    
Average Humidity 82    
Maximum Humidity 93    
Minimum Humidity 58    
Precipitation  
Precipitation 0.00 in - - ()
Sea Level Pressure  
Sea Level Pressure 30.08 in    
Wind  
Wind Speed 7 mph (SW)    
Max Wind Speed 18 mph    
Max Gust Speed 36 mph    
Visibility 6 miles    
Events Fog , Snow    
Averages and records for this station are not official NWS values.
T = Trace of Precipitation, MM = Missing Value Source: NWS Daily Summary

Daily Weather History Graph

Daily Weather History Graph

Search for Another Location

Airport or City:

Trip Planner

Search our weather history database for the weather conditions in past years. The results will help you decide how hot, cold, wet, or windy it might be!

Date:

Astronomy

Dec. 12, 2013 Rise Set
Actual Time 7:28 AM EST 4:24 PM EST
Civil Twilight 6:55 AM EST 4:57 PM EST
Nautical Twilight 6:19 AM EST 5:34 PM EST
Astronomical Twilight 5:44 AM EST 6:09 PM EST
Moon 1:37 PM EST (12/12) 2:41 AM EST (12/12)
Length of Visible Light 10h 02m
Length of Day
8h 56m
Waxing Gibbous, 80% of the Moon is Illuminated
Dec 12
Waxing Gibbous
Dec 17
Full
Dec 25
Last Quarter
Jan 1
New
Jan 7
First Quarter

Hourly Weather History & Observations

Time (EST) Temp. Windchill Dew Point Humidity Pressure Visibility Wind Dir Wind Speed Gust Speed Precip Events Conditions
12:58 AM 9.5 °F 3.0 °F 4.5 °F 80% 30.25 in 10.0 mi NNW 3.5 mph - N/A   Clear
1:58 AM 7.9 °F -0.7 °F 0.1 °F 71% 30.27 in 10.0 mi NNW 4.6 mph - N/A   Clear
2:58 AM 5.9 °F -1.1 °F -2.0 °F 70% 30.30 in 10.0 mi North 3.5 mph - N/A   Clear
4:58 AM 1.4 °F -6.2 °F -3.8 °F 79% 30.29 in 10.0 mi West 3.5 mph - N/A   Clear
5:33 AM 3.2 °F - -4.0 °F 72% 30.25 in 9.0 mi West 2.3 mph - N/A   Partly Cloudy
5:48 AM 3.2 °F - -4.0 °F 72% 30.25 in 10.0 mi West 2.3 mph - N/A   Scattered Clouds
6:58 AM 1.6 °F -8.0 °F -3.1 °F 81% 30.31 in 10.0 mi South 4.6 mph - N/A   Clear
7:58 AM 3.2 °F - -0.4 °F 85% 30.32 in 10.0 mi South 2.3 mph - N/A   Scattered Clouds
8:03 AM 3.2 °F - -0.4 °F 85% 30.32 in 10.0 mi South 2.3 mph - N/A   Scattered Clouds
8:58 AM 7.2 °F -3.0 °F 2.1 °F 80% 30.30 in 10.0 mi SSE 5.8 mph - N/A   Clear
9:58 AM 10.0 °F -0.9 °F 3.0 °F 73% 30.29 in 10.0 mi ESE 6.9 mph - N/A   Mostly Cloudy
10:23 AM 10.4 °F -1.5 °F 1.4 °F 67% 30.23 in 10.0 mi SE 8.1 mph - N/A   Overcast
10:58 AM 12.9 °F 2.6 °F 1.0 °F 59% 30.26 in 10.0 mi SSE 6.9 mph - N/A   Overcast
11:48 AM 14.0 °F 1.2 °F 3.2 °F 62% 30.16 in 10.0 mi SE 10.4 mph - N/A   Overcast
11:58 AM 13.6 °F 3.5 °F 3.2 °F 63% 30.21 in 10.0 mi SE 6.9 mph - N/A   Overcast
12:00 PM 14.0 °F 5.1 °F 3.2 °F 62% 30.16 in 10.0 mi SE 5.8 mph - N/A Snow Light Snow
12:09 PM 14.0 °F 3.9 °F 5.0 °F 67% 30.15 in 10.0 mi SE 6.9 mph - N/A   Overcast
12:21 PM 15.8 °F 5.1 °F 5.0 °F 62% 30.14 in 2.0 mi SSE 8.1 mph - N/A Snow Light Snow
12:23 PM 15.8 °F 5.1 °F 6.8 °F 68% 30.14 in 10.0 mi SSE 8.1 mph - N/A Snow Light Snow
12:28 PM 15.8 °F 1.4 °F 8.6 °F 73% 30.14 in 4.0 mi South 13.8 mph - N/A Snow Light Snow
12:33 PM 15.8 °F 2.7 °F 10.4 °F 79% 30.13 in 2.0 mi South 11.5 mph - N/A Snow Light Snow
12:38 PM 15.8 °F 3.4 °F 10.4 °F 79% 30.13 in 1.2 mi South 10.4 mph - N/A Snow Light Snow
12:43 PM 15.8 °F 4.2 °F 10.4 °F 79% 30.13 in 1.0 mi South 9.2 mph - N/A Snow Light Snow
12:48 PM 15.8 °F 7.2 °F 12.2 °F 86% 30.13 in 0.8 mi South 5.8 mph - N/A Snow Light Snow
12:53 PM 15.8 °F 5.1 °F 12.2 °F 86% 30.13 in 1.5 mi South 8.1 mph - N/A Snow Light Snow
12:58 PM 15.8 °F 6.1 °F 12.2 °F 86% 30.18 in 4.0 mi SSW 6.9 mph - 0.00 in Snow Light Snow
1:03 PM 15.8 °F 6.1 °F 12.2 °F 86% 30.12 in 4.0 mi South 6.9 mph - N/A Snow Light Snow
1:13 PM 15.8 °F 4.2 °F 12.2 °F 86% 30.12 in 3.0 mi South 9.2 mph - N/A Snow Light Snow
1:18 PM 15.8 °F 5.1 °F 12.2 °F 86% 30.11 in 2.5 mi SSE 8.1 mph - N/A Snow Light Snow
1:23 PM 15.8 °F 4.2 °F 12.2 °F 86% 30.11 in 3.0 mi South 9.2 mph - N/A Snow Light Snow
1:28 PM 15.8 °F 3.4 °F 12.2 °F 86% 30.10 in 4.0 mi South 10.4 mph - N/A Snow Light Snow
1:45 PM 17.6 °F 7.3 °F 12.2 °F 79% 30.09 in 10.0 mi South 8.1 mph - N/A   Overcast
1:47 PM 17.6 °F 7.3 °F 12.2 °F 79% 30.09 in 8.0 mi SSW 8.1 mph - N/A Snow Light Snow
1:58 PM 17.2 °F 6.8 °F 13.3 °F 84% 30.13 in 4.0 mi SSW 8.1 mph - 0.00 in Snow Light Snow
2:03 PM 17.6 °F 7.3 °F 14.0 °F 86% 30.08 in 1.8 mi SW 8.1 mph - N/A Snow Light Snow
2:08 PM 17.6 °F 8.2 °F 14.0 °F 86% 30.07 in 0.5 mi SW 6.9 mph - N/A Fog , Snow Light Freezing Fog
2:13 PM 17.6 °F 8.2 °F 14.0 °F 86% 30.07 in 0.5 mi SW 6.9 mph - N/A Fog , Snow Light Freezing Fog
2:18 PM 17.6 °F 10.7 °F 14.0 °F 86% 30.07 in 0.5 mi Variable 4.6 mph - N/A Fog , Snow Light Freezing Fog
2:33 PM 17.6 °F 12.3 °F 15.8 °F 93% 30.07 in 0.5 mi WSW 3.5 mph - N/A Fog , Snow Light Freezing Fog
2:38 PM 17.6 °F 12.3 °F 15.8 °F 93% 30.06 in 0.8 mi WSW 3.5 mph - N/A Snow Light Snow
2:43 PM 17.6 °F 9.3 °F 15.8 °F 93% 30.06 in 2.5 mi SW 5.8 mph - N/A Snow Light Snow
2:48 PM 17.6 °F 8.2 °F 15.8 °F 93% 30.06 in 9.0 mi WSW 6.9 mph - N/A Snow Light Snow
2:50 PM 17.6 °F 8.2 °F 15.8 °F 93% 30.06 in 10.0 mi West 6.9 mph - N/A   Mostly Cloudy
2:55 PM 17.6 °F 6.4 °F 15.8 °F 93% 30.06 in 10.0 mi West 9.2 mph - N/A   Overcast
2:58 PM 18.1 °F 6.3 °F 15.4 °F 89% 30.11 in 10.0 mi WSW 10.4 mph - 0.00 in   Mostly Cloudy
3:04 PM 19.4 °F 7.2 °F 14.0 °F 80% 30.06 in 10.0 mi WSW 11.5 mph - N/A   Light Freezing Rain
3:14 PM 19.4 °F 4.5 °F 8.6 °F 63% 30.05 in 10.0 mi WSW 17.3 mph 35.7 mph N/A   Mostly Cloudy
3:58 PM 18.5 °F 4.3 °F 6.4 °F 59% 30.09 in 10.0 mi WSW 15.0 mph 23.0 mph 0.00 in   Overcast
4:05 PM 19.4 °F 4.5 °F 6.8 °F 58% 30.04 in 4.0 mi West 17.3 mph 24.2 mph N/A Snow Blowing Snow
4:10 PM 17.6 °F 1.7 °F 10.4 °F 73% 30.04 in 0.5 mi WSW 18.4 mph 25.3 mph N/A Snow Snow
4:15 PM 17.6 °F 3.7 °F 12.2 °F 79% 30.04 in 0.2 mi WSW 13.8 mph 25.3 mph N/A Snow Heavy Snow
4:45 PM 17.6 °F 5.0 °F 15.8 °F 93% 30.04 in 0.5 mi WSW 11.5 mph 18.4 mph N/A Fog , Snow Light Freezing Fog
4:50 PM 17.6 °F 5.7 °F 15.8 °F 93% 30.04 in 1.5 mi WSW 10.4 mph - N/A Snow Light Snow
4:55 PM 17.6 °F 3.7 °F 15.8 °F 93% 30.04 in 5.0 mi West 13.8 mph 23.0 mph N/A Snow Light Snow
4:58 PM 17.4 °F 4.7 °F 15.3 °F 91% 30.09 in 7.0 mi West 11.5 mph 23.0 mph 0.00 in Snow Light Snow
5:03 PM 17.6 °F 5.0 °F 14.0 °F 86% 30.04 in 10.0 mi West 11.5 mph 23.0 mph N/A Snow Light Snow
5:08 PM 17.6 °F 4.3 °F 12.2 °F 79% 30.04 in 10.0 mi West 12.7 mph 19.6 mph N/A Snow Light Snow
5:09 PM 17.6 °F 5.7 °F 12.2 °F 79% 30.04 in 10.0 mi West 10.4 mph 19.6 mph N/A   Overcast
5:58 PM 16.5 °F 5.1 °F 8.8 °F 72% 30.08 in 10.0 mi West 9.2 mph - 0.00 in   Mostly Cloudy
6:23 PM 15.8 °F 7.2 °F 6.8 °F 68% 30.03 in 10.0 mi West 5.8 mph - N/A   Overcast
6:31 PM 15.8 °F 7.2 °F 6.8 °F 68% 30.03 in 10.0 mi West 5.8 mph - N/A Snow Light Snow
6:58 PM 16.0 °F 10.4 °F 8.2 °F 72% 30.07 in 10.0 mi West 3.5 mph - 0.00 in Snow Light Snow
7:13 PM 15.8 °F 10.2 °F 8.6 °F 73% 30.02 in 10.0 mi WSW 3.5 mph - N/A   Overcast
7:23 PM 15.8 °F 10.2 °F 8.6 °F 73% 30.02 in 10.0 mi Variable 3.5 mph - N/A   Mostly Cloudy
7:58 PM 16.3 °F 7.8 °F 9.3 °F 74% 30.05 in 10.0 mi SSW 5.8 mph - 0.00 in   Partly Cloudy
7:59 PM 15.8 °F 6.1 °F 10.4 °F 79% 30.00 in 10.0 mi South 6.9 mph - N/A Snow Light Snow
8:09 PM 15.8 °F 6.1 °F 12.2 °F 86% 29.99 in 10.0 mi South 6.9 mph - N/A Snow Light Snow
8:17 PM 15.8 °F 7.2 °F 14.0 °F 93% 29.99 in 10.0 mi SSE 5.8 mph - N/A   Mostly Cloudy
8:24 PM 15.8 °F 8.6 °F 14.0 °F 93% 29.98 in 10.0 mi South 4.6 mph - N/A Snow Light Snow
8:39 PM 15.8 °F 3.4 °F 14.0 °F 93% 29.97 in 2.5 mi South 10.4 mph - N/A Snow Light Snow
8:44 PM 15.8 °F 3.4 °F 14.0 °F 93% 29.97 in 1.2 mi South 10.4 mph - N/A Snow Light Snow
8:49 PM 15.8 °F 2.7 °F 14.0 °F 93% 29.97 in 1.0 mi SSW 11.5 mph - N/A Snow Light Snow
8:54 PM 15.8 °F 4.2 °F 14.0 °F 93% 29.97 in 0.8 mi SSW 9.2 mph - N/A Snow Light Snow
8:58 PM 16.2 °F 3.2 °F 14.2 °F 92% 30.01 in 0.8 mi SSW 11.5 mph - 0.00 in Snow Light Snow
9:03 PM 15.8 °F 2.7 °F 14.0 °F 93% 29.96 in 0.8 mi SW 11.5 mph - N/A Snow Light Snow
9:13 PM 15.8 °F 2.7 °F 14.0 °F 93% 29.95 in 0.2 mi SW 11.5 mph 19.6 mph N/A Fog , Snow Heavy Freezing Fog
9:38 PM 15.8 °F 2.1 °F 14.0 °F 93% 29.94 in 0.5 mi SSW 12.7 mph 19.6 mph N/A Fog , Snow Light Freezing Fog
9:58 PM 16.0 °F 0.6 °F 14.4 °F 93% 29.93 in 0.8 mi SSW 16.1 mph - 0.00 in Snow Light Snow
10:13 PM 15.8 °F 5.1 °F 14.0 °F 93% 29.93 in 1.0 mi SW 8.1 mph 21.9 mph N/A Snow Light Snow
10:18 PM 15.8 °F 2.7 °F 14.0 °F 93% 29.92 in 1.2 mi SW 11.5 mph 21.9 mph N/A Snow Light Snow
10:28 PM 15.8 °F 0.9 °F 14.0 °F 93% 29.92 in 1.2 mi SSW 15.0 mph 20.7 mph N/A Snow Light Snow
10:33 PM 15.8 °F 2.7 °F 14.0 °F 93% 29.92 in 1.5 mi SW 11.5 mph 20.7 mph N/A Snow Light Snow
10:38 PM 15.8 °F 4.2 °F 14.0 °F 93% 29.92 in 1.8 mi SW 9.2 mph - N/A Snow Light Snow
10:53 PM 15.8 °F 1.4 °F 14.0 °F 93% 29.91 in 2.5 mi SW 13.8 mph - N/A Snow Light Snow
10:58 PM 16.3 °F 3.4 °F 14.4 °F 92% 29.91 in 4.0 mi SW 11.5 mph - 0.00 in Snow Light Snow
11:13 PM 15.8 °F 8.6 °F 14.0 °F 93% 29.91 in 10.0 mi WSW 4.6 mph - N/A Snow Light Snow
11:40 PM 17.6 °F 6.4 °F 14.0 °F 86% 29.90 in 10.0 mi SSW 9.2 mph - N/A   Overcast
11:57 PM 17.6 °F 8.2 °F 14.0 °F 86% 29.89 in 10.0 mi SSW 6.9 mph - N/A   Light Freezing Rain
11:58 PM 17.6 °F 8.2 °F 14.0 °F 86% 29.93 in 10.0 mi SSW 6.9 mph - 0.00 in   Light Freezing Rain